Simultaneous Nadir Overpasses (SNOs) Predictions

Prediction of SNOs between NOAA-20 and LANDSAT-9 Satellite Orbit:

Table of predicted SNOs for the next 14.0 days since TLE Epoch: 8/3/2024
Index Date (NOAA-20) Time (NOAA-20) Lat,Lon (NOAA-20) SZA (NOAA-20 ) Date (LANDSAT-9) Time (LANDSAT-9) Lat,Lon (LANDSAT-9) SZA (LANDSAT-9 ) Distance(km) Time Diff (sec)
1 08/03/2024 06:19:29 -70.94, -99.96 126.37 08/03/2024 06:20:36 -70.86, -97.72 126.54 82.16 67
2 08/03/2024 07:09:59 70.08, 68.72 52.73 08/03/2024 07:10:16 70.05, 68.73 52.70 2.95 17
3 08/03/2024 08:00:40 -69.95,-123.77 127.40 08/03/2024 07:59:46 -69.94,-123.80 127.40 1.47 54
4 08/05/2024 22:36:08 -70.11, 17.13 126.53 08/05/2024 22:37:19 -70.13, 17.08 126.52 3.05 71
5 08/05/2024 23:26:53 70.04,-175.46 53.41 08/05/2024 23:26:46 70.02,-175.43 53.39 2.21 7
6 08/06/2024 00:17:31 -69.74, -7.70 126.90 08/06/2024 00:16:18 -69.80, -8.10 126.81 16.87 73
7 08/08/2024 14:53:03 -70.13, 132.87 125.76 08/08/2024 14:53:48 -70.12, 132.95 125.78 3.07 45
8 08/08/2024 15:43:46 69.96, -59.57 54.08 08/08/2024 15:43:16 69.95, -59.64 54.07 3.04 30
9 08/11/2024 06:19:27 70.88, 80.11 55.81 08/11/2024 06:20:34 70.82, 82.25 55.67 78.19 67
10 08/11/2024 07:09:55 -70.05,-111.24 125.06 08/11/2024 07:10:16 -70.06,-111.24 125.06 1.30 21
11 08/11/2024 08:00:39 69.94, 56.23 54.84 08/11/2024 07:59:43 69.95, 56.24 54.85 0.84 56
12 08/13/2024 22:36:07 70.14,-162.93 55.83 08/13/2024 22:37:14 70.12,-162.90 55.80 2.37 67
13 08/13/2024 23:26:49 -70.03, 4.54 124.27 08/13/2024 23:26:44 -70.02, 4.59 124.29 2.54 5
14 08/14/2024 00:17:27 69.61, 172.48 55.31 08/14/2024 00:16:15 69.68, 171.77 55.41 28.53 72
15 08/16/2024 14:53:00 70.09, -47.08 56.62 08/16/2024 14:53:41 70.09, -47.05 56.61 1.28 41
16 08/16/2024 15:43:42 -69.98, 120.40 123.49 08/16/2024 15:43:11 -69.99, 120.44 123.48 2.00 31



Historial Predications of SNOs between NOAA-20 and LANDSAT-9
